User: anonymous   Login
Location: San Pelegr�n
(42.1868°N, 0.0079°E)
Time: 18:05:34
(UTC+00:00)
Language:

Cosmos-2242 - Orbit

View from above orbital plane
View from above orbital plane
View from above satellite
View from above satellite

Ground track
Ground track

The orbit data is extracted from the following two-line orbital elements,

1 22626U 93024A   20099.68684525  .00000173  00000-0  16105-4 0  9998
2 22626  82.5219 153.8304 0017692 316.3949  43.5869 14.87981348458781
Epoch (UTC): 08 April 2020 16:29:03
Eccentricity: 0.0017692
inclination: 82.5219°
perigee height: 592 km
apogee height: 616 km
right ascension of ascending node: 153.8304°
argument of perigee: 316.3949°
revolutions per day: 14.87981348
mean anomaly at epoch: 43.5869°
orbit number at epoch: 45878

The dashed part of the orbit path shows where the satellite is in the earth's shadow,  

DLR